User: anonymous   Login
Location: Unspecified
(0.0000°N, 0.0000°E)
Time: 17:45:44
(UTC+00:00)
Language:

GONETS M 11 (M21) - Orbit

View from above orbital plane
View from above orbital plane
View from above satellite
View from above satellite

Ground track
Ground track

The orbit data is extracted from the following two-line orbital elements,

1 40552U 15020A   18049.70372423  .00000012  00000-0  12236-4 0  9995
2 40552  82.4879 125.4179 0017163 150.4343 209.7724 12.42872632131062
Epoch (UTC): 18 February 2018 16:53:21
Eccentricity: 0.0017163
inclination: 82.4879°
perigee height: 1481 km
apogee height: 1508 km
right ascension of ascending node: 125.4179°
argument of perigee: 150.4343°
revolutions per day: 12.42872632
mean anomaly at epoch: 209.7724°
orbit number at epoch: 13106

The dashed part of the orbit path shows where the satellite is in the earth's shadow,  

DLR